Location: downtown San Diego
(32.7310°N, 117.1990°W)
Time: 12:30:53
(UTC-08:00)

Cosmos 1943 Rocket - Pass Details

Date: 12 July 2018
Orbit: 814 x 842 km, 71.0° (Epoch: 18 November)

Event Time Altitude Azimuth Distance (km) Brightness Sun altitude
Rises 20:19:37 0° 187° (S) 3,332 5.1 -4.7°
Reaches altitude 10° 20:22:04 10° 183° (S) 2,408 4.3 -5.2°
Maximum altitude 20:27:26 55° 106° (ESE) 990 2.3 -6.1°
Drops below altitude 10° 20:32:52 10° 30° (NNE) 2,440 4.6 -7.1°
Sets 20:35:21 0° 26° (NNE) 3,382 5.4 -7.5°
